shi-jia-zhuang , China , ASIA

  • Wednesday
    September 20

      Sunny

      66 °F

      No wind

       

  • Thursday
    September 21

    Cloudy  Cloudy

    90 °F  68 °F

    South  No wind

    3~4L    

  • Friday
    September 22

    Sunny  Sunny

    86 °F  63 °F

    No wind  North

        

  • Saturday
    September 23

    Cloudy  Cloudy

    82 °F  63 °F

    South  North

        

  • Sunday
    September 24

    Cloudy  Cloudy

    81 °F  63 °F

    South  North

        

  • Monday
    September 25

    Light rain  Overcast

    77 °F  61 °F

    South  North

        

  • Tuesday
    September 26

    Sunny  Sunny

    77 °F  63 °F

    North  North

    3~4L    

Date   Weather Temperature Humidity Total_rain Visibility Wind
23:00 Sunny 69°F 62.2% 0mm 8km Southwest  0.9m/s
02:00 Sunny 67°F 66.4% 0mm 4km Southwest  0.3m/s
05:00 Sunny 67°F 65.6% 0mm 4km Southwest  0.7m/s
08:00 Sunny 69°F 64.6% 0mm 8km Southwest  1.5m/s
11:00 Cloudy 83°F 47.4% 0mm 8km Southwest  1.4m/s
14:00 Cloudy 89°F 42.1% 0mm 8km Southwest  3.0m/s
17:00 Cloudy 87°F 44.6% 0mm 8km Southwest  2.3m/s
20:00 Cloudy 83°F 39.1% 0mm 8km Southwest  0.9m/s
23:00 Cloudy 82°F 54.3% 0mm 8km Southwest  1.3m/s
02:00 Cloudy 77°F 56.4% 0mm 12km Southwest  1.7m/s
05:00 Cloudy 76°F 38.1% 0mm 8km Northwest  2.1m/s
08:00 Cloudy 72°F 34.7% 0mm 12km Northwest  1.9m/s
11:00 Sunny 82°F 32.1% 0mm 12km Northwest  2.3m/s
14:00 Sunny 85°F 32.5% 0mm 12km Northwest  2.8m/s
17:00 Sunny 86°F 30.1% 0mm 12km Northeast  2.7m/s
20:00 Sunny 68°F 27.7% 0mm 12km Southeast  1.3m/s
23:00 Sunny 68°F 44.7% 0mm 12km Southwest  0.7m/s
02:00 Sunny 67°F 44.8% 0mm 12km Northwest  1.0m/s
05:00 Sunny 64°F 49.6% 0mm 12km Northwest  0.9m/s
08:00 Sunny 63°F 55.1% 0mm 12km Northwest  0.9m/s
11:00 Cloudy 77°F 41.3% 0mm 12km Southeast  1.1m/s
14:00 Cloudy 81°F 41.3% 0mm 4km Southeast  2.6m/s
17:00 Cloudy 82°F 43.7% 0mm 8km Southeast  2.0m/s
20:00 Cloudy 75°F 37.7% 0mm 4km Northeast  1.3m/s
23:00 Cloudy 69°F 62.8% 0mm 12km Northwest  1.4m/s
02:00 Cloudy 65°F 68.4% 0mm 4km Northwest  0.7m/s
05:00 Cloudy 63°F 74.9% 0mm 4km Northwest  0.9m/s
08:00 Cloudy 64°F 73.9% 0mm 4km Southwest  0.9m/s
11:00 Cloudy 77°F 58% 0mm 8km Southeast  1.2m/s
14:00 Cloudy 80°F 55.9% 0mm 4km Southeast  1.5m/s
17:00 Cloudy 78°F 57.1% 0mm 4km Southeast  2.0m/s
20:00 Cloudy 73°F 49.2% 0mm 4km Southeast  1.4m/s
23:00 Cloudy 68°F 81.5% 0mm 4km Southwest  0.7m/s
02:00 Cloudy 65°F 89.5% 0mm 4km Southwest  1.2m/s
05:00 Cloudy 63°F 91.9% 0mm 8km Southeast  0.6m/s
08:00 Cloudy 65°F 88.4% 0mm 4km Southeast  1.2m/s
11:00 Overcast 77°F 64.9% 0mm 4km Southeast  1.3m/s
14:00 Cloudy 74°F 62.8% 0mm 4km Southeast  2.1m/s
17:00 Light rain 72°F 64.9% 0.4mm 8km Southeast  1.6m/s
20:00 Overcast 71°F 55.9% 0mm 4km Southeast  0.9m/s
23:00 Overcast 67°F 93.5% 0mm 4km Northwest  1.1m/s
02:00 Overcast 65°F 98% 0mm 4km Northeast  1.5m/s
05:00 Overcast 66°F 95.8% 0mm 4km Northwest  1.0m/s
08:00 Overcast 67°F 92.1% 0mm 4km Northeast  0.8m/s
11:00 Sunny 77°F 88.4% 0mm 4km Northeast  1.1m/s
14:00 Sunny 72°F 86.9% 0mm 4km Northeast  1.2m/s
17:00 Sunny 65°F 85.3% 0mm 4km Southeast  1.1m/s
20:00 Sunny 61°F 82.6% 0mm 4km Northwest  0.6m/s
23:00 Sunny 69°F 76.7% 0mm 4km Southwest  0.2m/s
02:00 Sunny 66°F 98% 0mm 4km Northwest  1.5m/s
05:00 Sunny 63°F 85.4% 0mm 4km Northeast  1.7m/s